Location: Huberhof
(49.2050°N, 7.4980°E)
Time: 05:06:28
(UTC+00:00)

USA 308 - Pass Details

Date: 29 October 2020
Orbit: 571 x 578 km, 54.0° (Epoch: 23 November)

Event Time Altitude Azimuth Distance (km) Brightness Sun altitude
Rises 17:04:31 0° 295° (WNW) 2,789 7.4 -8.9°
Reaches altitude 10° 17:06:47 10° 297° (WNW) 1,887 6.4 -9.3°
Maximum altitude 17:11:05 74° 23° (NNE) 602 2.9 -10.0°
Enters shadow 17:15:05 12° 109° (ESE) 1,772 4.9 -10.6°
